Snowfall_Accumulation
nan nan nan nan nan nan nan 0.0 0.0 0.0 0.0 0.1 0.4 2.2 2.1 nan 0.1 0.0 0.1 0.3 0.3 0.1 0.1 0.0 0.4 1.3 0.7 0.1 0.7 1.0 0.9 1.2 0.9 0.0 0.0 0.0 0.0 0.0 0.0 1.5 0.4 0.7 0.8 5.7
nan nan nan nan nan nan 0.0 0.0 0.0 0.0 0.0 0.3 0.0 0.0 0.0 0.0 0.0 0.1 0.0 0.3 0.5 0.0 0.3 0.6 0.2 0.1 0.1 0.1 0.4 1.8 1.4 3.0 1.3 0.7 0.6 0.0 0.1 0.0 0.0 0.0 0.1 1.0 5.4 5.7
nan nan nan nan nan nan 0.0 0.0 0.1 0.0 0.0 0.0 0.3 0.2 0.0 0.0 0.0 0.1 0.2 0.4 0.1 0.0 0.0 0.3 0.9 0.1 0.0 0.0 0.0 nan nan 0.8 3.0 3.1 1.2 1.4 0.6 0.2 0.2 0.0 3.6 0.4 3.9 1.1
nan nan nan nan nan nan 0.0 0.0 0.1 0.1 0.2 0.0 0.2 0.3 0.1 0.0 0.1 0.1 0.0 0.1 0.8 1.1 0.2 0.0 0.3 0.2 0.0 0.0 nan 0.0 0.5 2.5 0.7 0.1 0.0 0.8 1.2 0.8 0.8 3.5 0.3 3.1 0.7 1.4
nan nan nan nan nan nan 0.0 0.0 0.2 0.0 0.0 0.0 0.0 0.0 0.1 0.2 0.4 0.8 0.2 0.7 0.2 0.9 3.1 3.0 1.3 0.7 0.2 0.2 0.0 0.6 0.2 2.8 0.6 0.3 0.0 0.2 1.2 1.2 0.9 0.7 4.6 1.6 0.9 1.4
nan nan nan nan nan nan 0.0 0.0 0.0 0.5 nan 0.0 0.1 0.1 0.3 0.4 0.2 0.0 0.2 0.3 0.5 0.1 0.1 0.3 0.2 0.2 0.1 0.4 1.3 0.3 0.8 3.3 2.3 2.3 0.0 0.0 2.0 2.2 1.1 2.4 4.4 3.2 4.3 5.0
nan nan nan nan nan nan 0.0 0.0 0.3 1.8 0.4 0.0 0.1 0.0 0.0 0.1 0.1 0.6 0.0 0.0 0.2 0.0 0.0 0.0 0.0 0.0 0.0 0.0 0.1 0.2 1.6 0.7 1.2 3.2 0.6 5.8 1.6 0.7 0.3 1.9 2.3 2.0 1.9 1.3
nan nan nan nan nan nan 0.0 0.1 0.5 1.8 1.9 0.0 0.0 0.2 0.7 0.3 0.1 0.1 0.2 0.1 0.0 0.0 0.0 0.4 0.3 0.0 0.0 0.0 0.0 0.0 0.1 0.3 6.5 5.0 1.3 1.5 3.6 3.2 2.0 1.9 1.5 1.5 1.3 0.8
nan nan nan nan nan nan 0.1 0.0 0.1 1.1 4.4 0.1 0.2 0.2 0.0 0.5 0.3 0.0 0.0 0.0 0.0 0.0 0.0 1.2 2.2 0.7 0.0 0.2 0.0 0.0 0.0 0.0 1.0 3.2 6.1 2.5 1.3 1.3 1.6 2.2 4.9 2.1 0.8 0.4
nan nan nan nan nan nan 0.0 0.0 0.0 0.8 4.8 0.1 0.7 1.6 3.0 1.7 1.0 1.2 0.0 0.0 0.0 0.0 0.3 1.8 1.8 1.2 1.1 1.9 0.4 0.2 0.1 3.0 8.1 3.3 7.3 2.9 1.3 0.4 0.8 5.1 2.7 0.9 1.1 1.2
nan nan nan nan nan nan 0.0 0.0 0.0 1.6 4.9 1.3 1.4 1.4 2.4 1.8 0.7 1.9 0.3 0.2 0.5 0.3 3.1 4.2 2.9 3.9 1.5 0.9 0.9 0.8 0.7 3.0 3.9 3.7 10.5 15.6 1.4 0.1 1.8 3.7 0.6 0.8 0.5 0.4
nan nan nan nan nan nan nan 0.2 0.0 0.0 3.4 0.7 0.0 0.0 0.0 0.0 0.0 0.5 0.3 0.5 0.5 0.4 2.2 2.9 2.3 2.5 1.4 2.7 5.8 1.0 2.6 5.1 4.0 5.7 7.3 6.1 3.3 5.4 3.2 2.9 1.5 1.0 0.6 0.3
nan nan nan nan nan nan nan 0.0 0.1 0.0 0.2 0.0 0.0 0.1 0.0 0.0 0.0 0.0 2.5 0.0 0.3 2.9 3.5 5.4 4.2 4.3 1.6 2.3 3.0 3.0 2.1 2.8 4.6 2.6 2.1 2.3 2.5 0.5 1.1 1.1 1.5 0.9 0.3 0.4
nan nan nan nan nan nan nan 0.0 0.0 0.0 0.1 1.2 0.0 0.0 0.0 0.0 0.1 0.1 0.0 0.2 0.0 0.5 2.0 7.7 5.2 6.5 1.0 3.1 4.7 1.8 3.1 2.6 5.1 5.2 3.0 2.5 2.4 1.6 1.8 1.0 0.3 0.3 0.2 0.2
nan nan nan nan nan nan nan 0.0 0.0 0.0 0.4 1.7 0.0 0.0 0.0 0.0 0.0 0.1 0.0 0.1 0.6 2.2 6.2 9.0 12.5 3.9 5.9 3.7 4.9 10.5 9.1 7.8 7.7 7.6 5.6 6.8 4.4 4.0 2.5 1.8 1.8 1.6 1.3 0.6
nan nan nan nan nan nan 0.0 0.3 0.0 0.0 0.0 3.8 1.3 0.0 0.0 0.0 0.2 0.1 0.2 0.5 1.1 4.6 8.1 8.3 11.0 4.7 5.9 15.1 11.4 7.0 5.1 4.9 7.4 10.3 8.4 9.2 7.8 6.3 5.4 5.3 5.2 4.3 2.4 2.3
nan nan nan nan nan 0.0 0.0 0.1 0.0 nan 0.0 1.5 2.4 0.6 0.2 0.0 0.0 0.4 0.9 0.5 6.4 7.4 11.1 10.3 8.1 6.4 3.1 12.0 12.4 8.3 7.2 7.2 9.2 7.6 5.0 6.2 4.8 13.0 8.6 7.0 7.8 6.1 5.5 5.7
nan nan nan nan nan nan 0.1 0.0 nan nan 0.1 0.4 8.3 1.4 0.0 0.0 0.8 3.0 1.0 4.1 5.3 4.2 9.3 6.2 6.9 3.9 4.8 16.1 12.7 8.7 6.7 4.1 3.9 6.4 6.1 9.8 7.1 4.5 5.7 4.1 4.2 4.3 5.5 5.6
nan nan nan 0.0 0.0 0.1 0.1 nan nan 1.5 0.7 8.7 5.8 3.9 4.2 0.0 0.3 1.8 6.6 2.6 4.8 3.6 5.1 7.1 1.7 6.5 14.2 16.7 9.8 6.4 7.4 7.9 8.1 5.1 4.5 3.6 4.4 4.1 3.1 2.9 2.6 2.6 4.1 3.5
nan 0.0 0.0 0.5 0.1 nan nan 0.1 1.0 1.0 2.1 2.3 5.4 0.5 3.5 0.1 0.1 4.0 2.7 7.0 7.5 12.6 6.8 1.8 6.8 19.6 13.0 11.2 8.9 6.4 5.8 5.4 3.4 2.5 1.9 1.1 1.2 1.8 2.0 2.7 2.3 2.8 3.3 2.9
0.0 0.3 0.5 0.0 nan 0.0 0.1 2.7 5.5 4.0 9.2 2.2 2.1 0.7 2.7 0.7 7.3 6.4 7.6 12.7 9.6 14.6 6.0 3.8 9.4 12.2 11.9 7.0 5.5 3.7 3.1 2.0 1.7 1.3 1.9 1.1 1.6 1.4 1.0 0.7 0.6 0.6 0.8 1.6
0.0 0.0 0.0 0.0 0.7 4.0 7.1 7.3 3.8 7.4 8.9 3.5 2.8 1.0 1.1 1.8 1.7 7.7 11.8 14.0 10.6 16.5 2.3 8.9 11.1 13.7 5.9 3.2 3.6 3.2 0.8 0.5 0.3 0.3 0.3 0.1 0.2 0.1 0.2 0.2 0.2 0.1 0.1 0.1
0.0 0.4 7.6 6.8 10.2 37.2 15.5 11.4 13.3 12.7 2.2 2.3 2.7 3.9 1.6 2.2 0.9 9.9 8.1 17.6 16.5 1.8 13.2 8.2 9.4 5.4 2.4 1.9 0.8 0.2 0.1 0.1 0.0 0.1 0.0 0.0 0.1 0.0 0.1 0.2 0.1 0.0 0.0 0.0
5.1 18.6 49.7 15.6 14.0 4.1 7.0 5.0 4.1 2.0 2.4 2.9 3.3 5.2 4.3 4.0 9.8 6.5 16.6 5.2 5.6 17.0 13.1 12.4 5.7 3.4 1.6 0.4 0.2 0.2 0.2 0.1 0.1 0.1 0.1 0.1 0.1 0.0 0.0 0.1 0.1 0.1 0.1 0.1
21.3 17.3 32.1 13.4 2.9 2.5 3.8 1.5 1.4 1.2 1.3 2.2 3.9 4.5 2.9 7.8 12.0 3.6 5.7 12.5 12.5 7.4 9.9 5.9 3.2 1.2 0.6 0.3 0.2 0.2 0.2 0.5 1.1 0.9 1.4 1.3 0.9 0.4 0.3 0.1 0.0 0.1 0.1 0.1
19.7 21.0 13.8 1.5 4.5 4.9 3.4 3.6 2.8 0.9 1.5 1.7 3.3 9.7 15.2 11.5 9.0 13.6 10.8 13.1 9.0 7.9 5.5 3.9 2.1 1.2 0.8 0.5 0.2 0.2 0.2 0.2 0.2 0.1 0.2 0.2 0.2 0.3 0.3 0.1 0.2 0.2 0.3 0.7
29.8 21.3 1.0 2.3 3.0 3.4 1.3 0.7 0.7 0.5 2.4 7.6 8.3 18.1 11.6 7.7 15.0 12.1 7.2 14.3 6.4 3.8 2.2 1.2 1.0 1.6 1.1 1.2 1.2 0.8 0.5 0.3 0.3 0.2 0.1 0.2 0.1 0.1 0.3 0.3 0.1 0.2 0.2 1.9
Water_Equivalent
nan nan nan nan nan nan nan 0.00 0.02 0.00 0.00 0.04 0.06 0.27 0.27 nan 0.02 0.00 0.02 0.05 0.04 0.01 0.01 0.00 0.06 0.14 0.08 0.02 0.10 0.13 0.14 0.19 0.21 0.00 0.00 0.00 0.00 0.00 0.00 0.45 0.09 0.23 0.23 1.13
nan nan nan nan nan nan 0.00 0.00 0.00 0.00 0.00 0.10 0.01 0.00 0.00 0.00 0.00 0.02 0.00 0.03 0.07 0.00 0.04 0.08 0.02 0.01 0.02 0.01 0.05 0.21 0.18 0.44 0.19 0.11 0.10 0.00 0.01 0.00 0.00 0.00 0.02 0.23 1.09 1.32
nan nan nan nan nan nan 0.00 0.00 0.04 0.00 0.00 0.00 0.04 0.02 0.00 0.00 0.00 0.02 0.05 0.07 0.03 0.00 0.01 0.04 0.11 0.01 0.00 0.00 0.01 nan nan 0.09 0.34 0.35 0.14 0.20 0.08 0.02 0.04 0.01 0.84 0.11 0.99 0.31
nan nan nan nan nan nan 0.00 0.00 0.02 0.02 0.07 0.00 0.02 0.05 0.01 0.01 0.02 0.03 0.00 0.01 0.10 0.13 0.02 0.00 0.03 0.02 0.00 0.00 nan 0.00 0.07 0.27 0.09 0.02 0.00 0.10 0.18 0.13 0.13 0.72 0.05 0.64 0.19 0.39
nan nan nan nan nan nan 0.00 0.01 0.03 0.00 0.00 0.00 0.00 0.00 0.02 0.03 0.06 0.13 0.03 0.11 0.03 0.13 0.39 0.38 0.15 0.08 0.03 0.03 0.00 0.09 0.03 0.34 0.07 0.04 0.00 0.03 0.15 0.14 0.12 0.09 0.45 0.23 0.13 0.19
nan nan nan nan nan nan 0.00 0.00 0.00 0.07 nan 0.00 0.01 0.01 0.04 0.04 0.03 0.00 0.03 0.05 0.07 0.02 0.02 0.06 0.04 0.04 0.02 0.06 0.18 0.04 0.10 0.37 0.28 0.32 0.00 0.00 0.22 0.18 0.10 0.23 0.37 0.32 0.42 0.41
nan nan nan nan nan nan 0.00 0.01 0.05 0.23 0.05 0.01 0.01 0.01 0.00 0.01 0.01 0.08 0.00 0.00 0.03 0.00 0.00 0.00 0.00 0.00 0.00 0.00 0.01 0.03 0.22 0.09 0.14 0.43 0.07 0.62 0.13 0.06 0.03 0.13 0.18 0.17 0.15 0.11
nan nan nan nan nan nan 0.00 0.02 0.09 0.25 0.22 0.00 0.00 0.02 0.08 0.03 0.01 0.01 0.02 0.01 0.00 0.00 0.00 0.08 0.04 0.00 0.00 0.00 0.00 0.01 0.01 0.04 0.72 0.59 0.23 0.14 0.31 0.24 0.14 0.14 0.10 0.12 0.10 0.06
nan nan nan nan nan nan 0.01 0.00 0.01 0.20 0.56 0.02 0.03 0.02 0.00 0.07 0.05 0.00 0.00 0.00 0.00 0.00 0.00 0.19 0.23 0.12 0.00 0.01 0.00 0.00 0.00 0.01 0.11 0.40 0.54 0.28 0.08 0.10 0.15 0.19 0.35 0.18 0.07 0.03
nan nan nan nan nan nan 0.00 0.00 0.00 0.16 0.60 0.01 0.09 0.18 0.34 0.20 0.12 0.14 0.00 0.01 0.00 0.00 0.05 0.25 0.24 0.11 0.11 0.14 0.03 0.01 0.01 0.25 0.71 0.34 0.63 0.18 0.09 0.03 0.06 0.37 0.16 0.07 0.10 0.11
nan nan nan nan nan nan 0.00 0.00 0.00 0.39 0.91 0.26 0.21 0.22 0.32 0.24 0.11 0.22 0.04 0.04 0.07 0.05 0.36 0.44 0.29 0.34 0.15 0.09 0.08 0.06 0.07 0.31 0.39 0.36 0.88 1.48 0.13 0.01 0.11 0.25 0.05 0.07 0.05 0.03
nan nan nan nan nan nan nan 0.07 0.00 0.00 0.61 0.11 0.00 0.00 0.00 0.00 0.00 0.10 0.06 0.08 0.08 0.07 0.32 0.38 0.27 0.30 0.14 0.24 0.45 0.10 0.21 0.43 0.33 0.51 0.61 0.57 0.32 0.47 0.29 0.28 0.13 0.08 0.06 0.03
nan nan nan nan nan nan nan 0.00 0.02 0.00 0.04 0.00 0.00 0.01 0.00 0.00 0.00 0.00 0.37 0.00 0.05 0.40 0.63 0.65 0.52 0.45 0.22 0.22 0.26 0.28 0.18 0.27 0.45 0.24 0.24 0.21 0.23 0.07 0.14 0.14 0.17 0.10 0.03 0.04
nan nan nan nan nan nan nan 0.00 0.00 0.01 0.01 0.16 0.00 0.00 0.00 0.00 0.01 0.01 0.00 0.04 0.01 0.11 0.34 1.10 0.75 0.84 0.15 0.38 0.45 0.14 0.27 0.25 0.45 0.56 0.43 0.37 0.40 0.25 0.24 0.14 0.04 0.04 0.03 0.03
nan nan nan nan nan nan nan 0.00 0.00 0.00 0.06 0.28 0.00 0.00 0.00 0.00 0.01 0.02 0.00 0.02 0.10 0.34 0.97 1.32 1.58 0.48 0.76 0.48 0.60 1.02 0.93 0.75 0.76 0.78 0.61 0.67 0.57 0.54 0.32 0.23 0.20 0.19 0.15 0.08
nan nan nan nan nan nan 0.00 0.04 0.00 0.00 0.00 0.59 0.30 0.00 0.00 0.00 0.04 0.02 0.04 0.07 0.16 0.70 1.24 1.13 1.53 0.64 0.68 1.92 1.12 0.75 0.56 0.55 0.84 1.09 1.06 1.06 0.96 0.76 0.70 0.61 0.60 0.49 0.29 0.28
nan nan nan nan nan 0.00 0.00 0.02 0.01 nan 0.00 0.26 0.66 0.11 0.03 0.00 0.00 0.07 0.17 0.08 0.96 1.04 1.57 1.36 1.05 0.73 0.37 1.53 1.25 0.89 0.76 0.79 1.00 0.95 0.62 0.69 0.55 1.35 1.01 0.83 0.96 0.73 0.66 0.66
nan nan nan nan nan nan 0.02 0.00 nan nan 0.01 0.10 2.46 0.30 0.01 0.00 0.14 0.40 0.23 0.66 0.94 0.60 1.31 0.90 0.86 0.54 0.63 1.86 1.27 0.91 0.75 0.47 0.42 0.70 0.66 1.03 0.84 0.56 0.68 0.46 0.47 0.45 0.54 0.57
nan nan nan 0.00 0.00 0.01 0.02 nan nan 0.28 0.14 1.52 1.23 0.79 1.18 0.00 0.07 0.25 0.81 0.39 0.69 0.48 0.59 0.78 0.23 0.67 1.54 1.50 0.91 0.63 0.72 0.72 0.83 0.63 0.53 0.42 0.45 0.40 0.29 0.28 0.25 0.24 0.37 0.33
nan 0.00 0.00 0.21 0.01 nan nan 0.03 0.20 0.24 0.34 0.49 0.93 0.08 0.54 0.02 0.01 0.50 0.34 1.04 1.11 2.68 0.74 0.23 0.88 1.69 1.43 1.24 0.92 0.64 0.61 0.62 0.40 0.27 0.18 0.11 0.11 0.15 0.17 0.23 0.19 0.24 0.28 0.25
0.00 0.11 0.18 0.00 nan 0.00 0.02 0.78 1.23 0.75 1.60 0.37 0.34 0.12 0.35 0.13 1.05 0.96 0.99 2.08 1.49 2.48 0.63 0.58 1.22 1.13 1.15 0.75 0.58 0.40 0.33 0.20 0.16 0.11 0.16 0.09 0.12 0.11 0.07 0.05 0.05 0.05 0.07 0.13
0.00 0.00 0.00 0.00 0.28 1.27 1.71 1.66 0.98 1.30 1.46 0.55 0.49 0.23 0.19 0.26 0.20 1.08 2.01 2.09 1.91 2.04 0.26 1.43 1.31 1.25 0.57 0.31 0.38 0.37 0.06 0.04 0.02 0.02 0.02 0.01 0.01 0.01 0.01 0.01 0.01 0.01 0.01 0.01
0.00 0.16 2.52 1.80 2.50 6.35 2.59 1.67 2.47 2.33 0.53 0.61 0.61 0.86 0.28 0.43 0.20 1.71 1.41 2.87 2.23 0.24 2.12 0.75 0.78 0.51 0.24 0.16 0.07 0.02 0.01 0.01 0.00 0.00 0.00 0.00 0.00 0.00 0.01 0.01 0.00 0.00 0.00 0.00
1.28 5.07 9.30 2.87 2.48 0.68 1.06 0.71 0.72 0.37 0.62 0.60 0.58 1.08 0.73 0.69 1.71 1.02 2.88 0.71 0.85 2.33 1.66 1.17 0.53 0.30 0.13 0.03 0.02 0.01 0.02 0.02 0.02 0.01 0.01 0.01 0.01 0.00 0.00 0.00 0.01 0.01 0.01 0.01
5.38 4.05 5.42 2.35 0.43 0.55 0.76 0.50 0.46 0.32 0.24 0.41 0.74 0.92 0.52 1.67 2.16 0.58 1.12 1.80 1.74 0.77 0.96 0.66 0.32 0.10 0.05 0.04 0.03 0.04 0.03 0.09 0.26 0.24 0.33 0.30 0.19 0.10 0.08 0.02 0.01 0.01 0.01 0.01
5.31 4.88 2.57 0.20 0.96 1.22 0.93 1.19 0.83 0.27 0.28 0.36 0.79 1.87 2.43 1.89 1.48 2.04 1.53 1.87 1.03 0.88 0.70 0.54 0.37 0.20 0.15 0.09 0.03 0.02 0.02 0.02 0.02 0.02 0.02 0.02 0.03 0.06 0.06 0.03 0.05 0.05 0.06 0.14
7.33 4.28 0.14 0.39 0.64 0.66 0.27 0.19 0.18 0.09 0.53 1.55 1.55 2.54 1.63 1.36 2.16 1.63 1.21 2.02 0.74 0.49 0.29 0.22 0.11 0.22 0.16 0.25 0.21 0.16 0.08 0.05 0.04 0.02 0.02 0.02 0.01 0.02 0.04 0.04 0.02 0.04 0.05 0.33
SL_Ratio
nan nan nan nan nan nan nan nan 2.6 nan nan 2.6 6.4 8.1 7.8 nan 6.0 nan 6.6 7.3 7.8 8.9 8.7 8.2 7.2 9.2 8.6 7.1 7.0 7.7 6.5 6.1 4.2 7.7 nan nan nan nan nan 3.3 4.6 3.0 3.4 5.0
nan nan nan nan nan nan nan 7.3 10.0 nan nan 3.1 8.3 nan nan 5.0 6.0 5.9 6.7 7.8 6.5 7.3 8.1 8.0 8.5 8.6 6.6 6.4 7.9 8.7 7.3 6.9 6.7 6.2 6.2 nan 5.6 nan nan nan 2.5 4.2 4.9 4.3
nan nan nan nan nan nan nan 10.0 2.5 nan nan nan 7.5 7.7 nan nan nan 5.1 5.1 6.1 5.2 7.5 7.2 7.9 8.8 9.1 7.1 4.0 6.4 nan nan 8.2 8.8 8.7 8.6 6.8 7.5 6.5 6.2 5.9 4.3 3.6 4.0 3.5
nan nan nan nan nan nan nan nan 4.8 7.0 2.5 5.3 6.2 5.9 6.1 6.9 7.9 5.8 5.7 6.9 7.7 8.7 9.5 6.7 10.2 8.9 10.0 5.7 nan nan 7.6 8.9 7.7 9.2 8.6 7.7 6.6 6.3 6.3 4.8 6.3 4.9 3.6 3.7
nan nan nan nan nan nan nan 5.6 7.3 10.0 10.0 nan nan nan 5.4 6.8 6.6 6.0 5.6 6.4 7.3 7.3 7.9 7.9 8.5 8.8 7.8 8.5 6.4 6.8 7.1 8.5 8.2 7.7 5.7 6.7 8.0 8.5 7.3 7.8 10.3 7.0 6.4 7.0
nan nan nan nan nan nan 5.0 6.7 6.0 7.5 nan nan 7.6 8.3 8.5 9.0 6.9 nan 5.7 6.1 6.3 5.7 5.9 5.6 5.7 5.7 5.2 6.2 7.4 6.7 7.9 8.7 8.5 7.2 0.0 6.9 9.0 12.1 10.2 10.3 11.8 10.0 10.4 12.2
nan nan nan nan nan nan 0.0 5.0 6.0 8.0 8.3 7.5 8.5 7.1 7.5 6.4 8.1 7.5 7.5 nan 6.1 5.0 nan nan nan nan 5.0 5.5 5.9 6.3 7.2 7.9 8.5 7.4 8.5 9.4 11.8 11.3 10.8 14.2 12.6 12.0 12.0 12.0
nan nan nan nan nan nan 4.5 5.9 5.5 7.1 8.8 8.3 nan 8.1 8.7 8.6 8.4 8.1 8.4 7.5 nan nan nan 5.4 6.3 6.3 nan nan nan 5.9 5.7 7.7 9.1 8.5 5.8 11.0 11.5 13.1 14.1 13.9 16.0 12.4 12.8 12.3
nan nan nan nan nan nan 6.3 nan 5.0 5.5 7.8 7.5 6.3 8.4 6.7 6.9 6.6 10.0 nan nan nan nan 7.3 6.6 9.6 5.6 8.0 14.3 10.0 nan nan 6.5 8.3 8.0 11.3 8.8 16.8 13.1 10.9 11.5 13.9 11.6 11.0 11.7
nan nan nan nan nan nan nan nan nan 5.2 8.0 7.4 7.7 8.9 8.8 8.5 8.4 8.0 0.0 5.3 5.0 10.0 6.4 7.3 7.5 11.1 10.1 13.5 11.9 12.2 11.5 11.8 11.4 9.7 11.6 16.0 13.7 13.7 11.8 13.9 16.8 12.0 11.5 11.1
nan nan nan nan nan nan nan 0.0 nan 4.2 5.4 5.2 6.5 6.3 7.7 7.7 6.8 8.6 6.4 5.7 7.0 5.9 8.5 9.4 10.3 11.5 10.0 10.9 12.1 13.9 10.5 9.6 10.0 10.5 11.8 10.6 10.8 12.9 16.0 14.7 12.2 12.1 11.9 11.7
nan nan nan nan nan nan nan 3.5 nan nan 5.6 6.5 10.0 6.0 6.7 5.7 0.0 5.3 5.4 5.7 6.1 5.7 6.9 7.7 8.3 8.6 9.5 11.3 12.9 9.5 12.3 12.1 11.9 11.3 12.0 10.7 10.5 11.4 10.8 10.2 11.7 11.9 11.0 8.9
nan nan nan nan nan nan nan 5.0 4.4 4.5 5.4 nan nan 7.6 nan nan nan nan 6.7 0.0 6.7 7.1 5.6 8.3 8.1 9.5 7.3 10.3 11.8 11.0 11.5 10.4 10.2 11.1 8.9 11.0 10.8 7.3 8.3 8.3 8.8 9.1 10.2 10.3
nan nan nan nan nan nan nan 0.0 nan 4.3 6.3 7.4 nan nan nan nan 5.3 5.2 4.0 4.7 4.7 5.1 6.0 7.0 6.9 7.7 7.2 8.3 10.4 12.3 11.6 10.5 11.3 9.4 7.0 6.7 6.1 6.4 7.5 7.0 6.9 7.6 6.7 7.6
nan nan nan nan nan nan nan nan nan nan 5.9 6.2 6.7 nan 5.0 nan 5.4 5.5 6.7 5.1 5.5 6.3 6.4 6.8 7.9 8.2 7.8 7.7 8.2 10.3 9.8 10.4 10.2 9.7 9.1 10.1 7.8 7.4 7.8 8.0 8.7 8.3 8.5 7.4
nan nan nan nan nan nan nan 7.5 0.0 nan nan 6.5 4.3 7.1 6.0 4.6 5.2 5.3 5.8 6.4 6.8 6.5 6.5 7.4 7.2 7.3 8.7 7.9 10.1 9.3 9.1 9.0 8.8 9.5 7.9 8.7 8.2 8.3 7.8 8.7 8.7 8.7 8.3 8.4
nan nan nan nan nan nan 3.3 7.2 5.2 nan nan 5.7 3.6 5.3 5.4 2.5 5.7 6.3 5.7 5.9 6.7 7.1 7.1 7.6 7.7 8.7 8.4 7.9 9.9 9.4 9.4 9.2 9.1 8.0 8.1 9.0 8.7 9.6 8.5 8.4 8.1 8.3 8.4 8.6
nan nan nan nan nan nan 4.4 0.0 nan nan 5.7 4.0 3.4 4.8 7.4 nan 5.4 7.5 4.2 6.2 5.7 7.0 7.1 6.9 8.0 7.2 7.6 8.7 10.0 9.6 9.0 8.6 9.3 9.1 9.2 9.4 8.5 8.0 8.5 9.0 8.9 9.7 10.2 9.9
nan nan nan nan nan 5.6 5.7 nan nan 5.2 5.2 5.7 4.7 4.9 3.6 6.0 4.8 7.2 8.1 6.6 6.9 7.5 8.6 9.2 7.3 9.7 9.2 11.1 10.7 10.2 10.3 10.9 9.7 8.1 8.4 8.7 9.7 10.3 10.5 10.7 10.5 11.0 11.1 10.6
nan nan 1.7 2.5 5.5 nan nan 4.7 4.9 4.2 6.3 4.6 5.8 6.1 6.5 5.9 6.6 8.1 8.0 6.7 6.7 4.7 9.1 7.6 7.7 11.6 9.1 9.0 9.7 10.1 9.5 8.7 8.6 9.0 10.6 10.2 11.0 11.9 11.7 12.1 11.7 11.7 11.7 11.4
nan 2.5 2.5 nan nan nan 2.6 3.4 4.5 5.4 5.8 6.1 6.3 6.1 7.8 5.7 6.9 6.6 7.6 6.1 6.4 5.9 9.5 6.6 7.7 10.8 10.3 9.4 9.5 9.3 9.5 9.8 10.7 11.8 12.0 11.9 12.8 12.9 13.1 12.7 12.3 11.9 11.9 12.5
nan 4.4 nan nan 2.5 3.1 4.2 4.4 3.9 5.7 6.1 6.3 5.8 4.6 6.0 6.9 8.3 7.1 5.9 6.7 5.6 8.1 8.8 6.2 8.5 11.0 10.4 10.1 9.4 8.8 12.8 11.8 12.1 12.7 12.9 12.7 13.6 13.3 14.0 14.0 14.1 13.5 13.5 12.7
nan 2.5 3.0 3.8 4.1 5.9 6.0 6.8 5.4 5.4 4.1 3.8 4.5 4.5 5.8 5.0 4.7 5.8 5.7 6.1 7.4 7.8 6.2 10.9 12.0 10.6 9.9 11.5 11.6 13.0 11.8 12.9 12.9 12.9 12.5 11.7 12.9 12.5 14.4 14.1 13.8 15.0 13.8 13.6
4.0 3.7 5.3 5.4 5.6 6.0 6.6 7.1 5.8 5.3 3.8 4.8 5.7 4.8 5.9 5.8 5.8 6.3 5.8 7.3 6.6 7.3 7.9 10.6 10.7 11.4 13.0 13.1 10.4 10.2 8.0 7.7 6.1 11.9 12.4 11.4 14.4 13.6 13.3 13.3 13.7 14.8 13.9 13.7
4.0 4.3 5.9 5.7 6.7 4.5 5.0 3.0 3.2 3.8 5.2 5.4 5.2 5.0 5.5 4.6 5.5 6.2 5.1 6.9 7.2 9.6 10.4 8.9 9.9 12.5 12.1 7.8 6.2 6.7 6.4 5.3 4.2 3.8 4.1 4.1 4.4 4.1 4.0 3.7 6.7 9.4 10.4 12.9
3.7 4.3 5.4 7.4 4.7 4.0 3.6 3.0 3.3 3.4 5.4 4.8 4.1 5.2 6.2 6.1 6.1 6.7 7.1 7.0 8.8 8.9 7.9 7.3 5.7 5.9 5.7 5.9 7.7 9.1 10.5 9.0 9.4 8.0 7.5 7.5 7.7 4.9 5.6 3.6 3.8 3.9 4.4 5.1
4.1 5.0 7.0 5.9 4.7 5.2 4.8 3.6 3.8 5.9 4.6 4.9 5.4 7.1 7.1 5.7 7.0 7.4 5.9 7.1 8.7 7.8 7.5 5.7 8.7 7.1 7.0 4.9 5.4 5.2 6.2 6.4 7.2 7.8 7.8 9.2 7.1 4.8 5.7 6.4 4.4 4.7 4.3 5.8